THORAD AGENA D DEB, 19351

Orbit data source: Space-Track

THORAD AGENA D DEB, 19351 is space debris in SSO originally from a launch on Wed, 08 Apr 1970 UTC launched from the Air Force Western Test Range (AFWTR). Debris objects in space refer to the collection of defunct objects orbiting the Earth. Examples of debris include non-operational satellites, rocket bodies, and fragments generated from explosions, collisions, or faulty payload assembly.

Loading next visibility...
Identifier
19351, 1970-025PW
Orbit
SSO
Country
Flag of USUS
Related business
Manufacturer
Unknown
Mission
Spacecraft
Bus & Motor
Unknown
Mass
Unknown
Launch date (UTC)
1970-04-08 (56 years ago)
Launch vehicle
Unknown
Launch site
Air Force Western Test Range (AFWTR)
Object type
Payload
Rocket body
Debris
Shape & HBR
Unknown shape, 0.1 m
Radar Cross Section
Small (<0.1 m²)

Expand to show TLE details & history
Last TLE update: 21 hours ago

TLE from 21 hours ago
0 THORAD AGENA D DEB
1 19351U 70025PW  26122.35364831  .00000458  00000-0  54986-3 0  9991
2 19351 100.1248 329.2308 0028027 313.2033 225.9374 13.72806017924426
Epoch: 2026-05-02T08:29Z
TLE epoch observation values (Epoch: 2026-05-02T08:29:15.213Z)
Latitude
0.96575°
Longitude
161.81623°
Altitude
1,006.589 km
Speed
7.341 km/s
True Right ascension
09h 57m 36s
True Declination
0° 57' 37"
Sunlit
Object was in daylight at epoch
Visualization orbit readout
Latitude
Unknown
Longitude
Unknown
Altitude
Unknown
Speed
Unknown
Apparent Right ascension
Unknown
Apparent Declination
Unknown
Sunlit
N/A
Visualization observer readout
Local Sidereal Time
13:02:30
Azimuth
Unknown
Elevation
Unknown
Doppler factor
Unknown
Orbital elements
Apogee altitude
1,007.449 km
Perigee altitude
966.166 km
Semi-major axis
7,364.945 km
Eccentricity
0.0028
Inclination
100.1248°
RAAN
329.2308°
Arg. of periapsis
313.2033°
True anomaly
225.70718°
Mean anomaly
225.9374°
Eccentric anomaly
225.82223°
Mean motion
3.43391 °/min
Orbital period
104.84 mins
BSTAR
0.00054986
Loading maneuver chart data...
Computing Atmospheric mass density...

Documentation

Showing up to 5 results
|